Home   Weather   Charleston   Past weeks

Flag for USA Past Weather in Charleston, West Virginia, USA — Yesterday and Last 2 Weeks

Now
52 °F

Partly sunny.


Feels Like: 52 °F
Forecast: 38 / 55 °F
Wind: 3 mph from North

Location: Yeager Airport

Current Time: Jan 19, 2017 at 2:33:17 pm

Latest Report: Jan 19, 2017 at 1:54 pm


Visibility: 10 mi

Pressure: 30.01 "Hg

Humidity: 61%

Dew Point: 39 °F

Location of CharlestonLocation

Past Weather in Charleston — Graph

°F

Charleston Temperature Yesterday

Maximum temperature yesterday: 55 °F (at 12:54 am)
Minimum temperature yesterday: 43 °F (at 8:54 am)
Average temperature yesterday: 45 °F

High & Low Weather Summary for the Past Weeks

 TemperatureHumidityPressure
High68 °F (Jan 12, 2:54 pm)100% (Jan 14, 8:54 am)30.76 "Hg (Jan 14, 8:54 am)
Low4 °F (Jan 9, 1:54 am)23% (Jan 9, 1:54 pm)29.89 "Hg (Jan 4, 1:54 pm)
Average37 °F75%30.26 "Hg
* Reported Jan 4 12:54 pm — Jan 19 12:54 pm, Charleston, Weather by CustomWeather, © 2017

Note: Actual official high and low records may vary slightly from our data, if they occured in-between our weather recording intervals... More about our weather records

Advertising

Charleston Weather History for the Previous 24 Hours

Scroll right to see more
 ConditionsComfort  
Time TempWeatherWind HumidityBarometerVisibility
12:54 pm
Thu, Jan 19
52 °FPartly sunny.3 mph64%30.01 "Hg10 mi
11:54 am49 °FBroken clouds.3 mph66%30.05 "Hg10 mi
10:54 am47 °FPartly sunny.8 mph71%30.08 "Hg10 mi
9:54 am45 °FBroken clouds.5 mph76%30.11 "Hg10 mi
8:54 am43 °FOvercast.No wind82%30.12 "Hg10 mi
7:54 am42 °FOvercast.No wind85%30.12 "Hg10 mi
6:54 am41 °FOvercast.No wind89%30.11 "Hg10 mi
5:54 am42 °FOvercast.No wind85%30.11 "Hg10 mi
5:22 am42 °FOvercast.No wind82%30.11 "Hg10 mi
4:54 am43 °FOvercast.No wind79%30.11 "Hg10 mi
3:54 am43 °FOvercast.No wind79%30.12 "Hg10 mi
2:54 am43 °FOvercast.No wind79%30.13 "Hg10 mi
2:29 am43 °FOvercast.No wind82%30.12 "Hg10 mi
1:54 am43 °FOvercast.3 mph79%30.12 "Hg10 mi
12:54 am43 °FOvercast.No wind79%30.14 "Hg10 mi
11:54 pm
Wed, Jan 18
43 °FOvercast.9 mph79%30.14 "Hg10 mi
10:54 pm43 °FOvercast.No wind79%30.16 "Hg10 mi
9:54 pm43 °FOvercast.No wind76%30.16 "Hg10 mi
8:54 pm43 °FOvercast.No wind76%30.14 "Hg10 mi
7:54 pm43 °FOvercast.No wind79%30.15 "Hg10 mi
6:54 pm43 °FOvercast.5 mph79%30.16 "Hg10 mi
5:54 pm44 °FOvercast.6 mph73%30.14 "Hg10 mi
4:54 pm44 °FOvercast.7 mph76%30.14 "Hg10 mi
3:54 pm45 °FOvercast.7 mph71%30.14 "Hg10 mi
2:54 pm45 °FMostly cloudy.3 mph80%30.13 "Hg10 mi
Weather by CustomWeather, © 2017

See weather overviewHow to use our weather pages